FENGYUN 1C DEB, 31924

Orbit data source: Space-Track

FENGYUN 1C DEB, 31924 is space debris in SSO originally from a launch on Mon, 10 May 1999 UTC launched from the Taiyaun Space Center, China (TSC). Fengyun 1C debris stems from the Chinese weather satellite Fengyun-1C, which was intentionally destroyed by a Chinese anti-satellite missile in 2007. This event dramatically increased the amount of space debris, with thousands of trackable fragments posing hazards to satellites and human spaceflight. The Fengyun 1C debris cloud has become a focal point in discussions about space sustainability and the need for international regulations to prevent the creation of new debris.

Loading next visibility...
Identifier
31924, 1999-025CMB
Orbit
SSO
Country
Flag of CNCN / PRC
Related business
Manufacturer
Unknown
Mission
Spacecraft
Bus & Motor
Unknown
Mass
Unknown
Launch date (UTC)
1999-05-10 (27 years ago)
Launch vehicle
Unknown
Launch site
Taiyaun Space Center, China (TSC)
Object type
Payload
Rocket body
Debris
Shape & HBR
Unknown shape, 0.1 m
Radar Cross Section
Small (<0.1 m²)

Expand to show TLE details & history
Last TLE update: 19 hours ago

TLE from 19 hours ago
0 FENGYUN 1C DEB
1 31924U 99025CMB 26120.85922455  .00001589  00000-0  15687-2 0  9997
2 31924  98.4118 264.6513 0273521  88.7177 274.5286 13.64459228933640
Epoch: 2026-04-30T20:37Z
TLE epoch observation values (Epoch: 2026-04-30T20:37:17.001Z)
Latitude
Longitude
96.53067°
Altitude
1,011.917 km
Speed
7.351 km/s
True Right ascension
17h 38m 36s
True Declination
0° 00' 00"
Sunlit
Object was in full shadow at epoch
Visualization orbit readout
Latitude
Unknown
Longitude
Unknown
Altitude
Unknown
Speed
Unknown
Apparent Right ascension
Unknown
Apparent Declination
Unknown
Sunlit
N/A
Visualization observer readout
Local Sidereal Time
23:26:55
Azimuth
Unknown
Elevation
Unknown
Doppler factor
Unknown
Orbital elements
Apogee altitude
1,219.013 km
Perigee altitude
814.481 km
Semi-major axis
7,394.884 km
Eccentricity
0.02735
Inclination
98.4118°
RAAN
264.6513°
Arg. of periapsis
88.7177°
True anomaly
271.39717°
Mean anomaly
274.5286°
Eccentric anomaly
272.96354°
Mean motion
3.41308 °/min
Orbital period
105.48 mins
BSTAR
0.0015687
Loading maneuver chart data...
Computing Atmospheric mass density...
Loading historical data...
Loading historical data...
Loading historical data...
Loading historical data...
Loading historical data...
Loading historical data...
Loading historical data...

Documentation

Showing up to 5 results
|